period_start,C,m1,H,J0,J1,J2,J3,J4,J5,JA,JB,JC,JD,JJ,JK,JN,#
2015-07-20 00:03:17,0.00,1.18,0.00,25.07,28.80,31.15,4.64,26.34,1010.76,2031.13,3107.95,2899.99,3179.97,349.59,342.95,17.15,0000 0000 0000 0000 000000
2015-07-20 00:08:18,-0.00,1.18,0.00,25.07,28.80,31.15,4.73,26.39,1010.76,2031.11,3107.96,2899.99,3179.98,350.26,343.61,17.18,0000 0000 0000 0000 000000
2015-07-20 00:13:19,0.00,1.18,0.00,25.07,28.80,31.15,4.76,26.41,1010.76,2031.16,3107.96,2899.99,3179.97,349.96,343.37,17.21,0000 0000 0000 0000 000000
2015-07-20 00:18:20,0.00,1.18,0.00,25.07,28.79,31.15,4.66,26.41,1010.76,2031.13,3107.94,2899.99,3179.99,350.06,343.46,17.24,0000 0000 0000 0000 000000
2015-07-20 00:23:22,0.04,1.18,0.00,25.07,28.78,31.15,4.76,26.43,1010.76,2031.30,3107.92,2899.99,3179.99,349.90,343.16,17.27,0000 0000 0000 0000 000000
2015-07-20 00:28:24,-0.04,1.18,0.00,25.07,28.78,31.15,4.67,26.31,1010.76,2031.19,3107.80,2899.99,3179.97,350.10,343.53,17.30,0000 0000 0000 0000 000000
2015-07-20 00:33:25,0.04,1.18,0.00,25.07,28.78,31.14,4.80,26.43,1010.76,2031.26,3107.82,2899.99,3179.96,350.47,343.54,17.33,0000 0000 0000 0000 000000
2015-07-20 00:38:26,-0.03,1.18,0.00,25.07,28.77,31.14,4.68,26.40,1010.76,2031.38,3107.95,2899.99,3179.99,349.81,343.19,17.36,0000 0000 0000 0000 000000
2015-07-20 00:43:27,0.03,1.18,0.00,25.07,28.77,31.13,4.74,26.47,1010.76,2031.39,3107.96,2899.99,3179.98,350.42,343.69,17.39,0000 0000 0000 0000 000000
2015-07-20 00:48:29,0.04,1.18,0.00,25.08,28.77,31.12,4.77,26.37,1010.75,2031.72,3107.99,2900.00,3179.99,350.53,343.79,17.42,0000 0000 0000 0000 000000
2015-07-20 00:53:30,0.03,1.18,0.00,25.08,28.77,31.12,4.82,26.41,1010.76,2031.85,3107.88,2900.00,3179.99,350.72,343.81,17.45,0000 0000 0000 0000 000000
2015-07-20 00:58:31,-0.00,1.18,0.00,25.08,28.77,31.13,4.76,26.39,1010.70,2031.84,3107.93,2900.00,3179.99,350.73,344.05,17.48,0000 0000 0000 0000 000000
2015-07-20 01:03:32,-0.00,1.18,0.00,25.09,28.77,31.13,4.85,26.41,1010.68,2031.82,3107.90,2900.00,3179.99,350.10,343.25,17.51,0000 0000 0000 0000 000000
2015-07-20 01:08:33,0.01,1.18,0.00,25.10,28.77,31.13,4.74,26.40,1010.68,2031.84,3107.65,2900.00,3179.99,350.26,343.30,17.53,0000 0000 0000 0000 000000
2015-07-20 01:13:34,-0.01,1.18,0.00,25.09,28.77,31.13,4.72,26.36,1010.62,2031.83,3107.66,2900.00,3179.98,350.32,343.53,17.56,0000 0000 0000 0000 000000
2015-07-20 01:18:36,0.01,1.18,0.00,25.10,28.77,31.13,4.72,26.34,1010.70,2031.78,3107.53,2899.99,3179.96,349.96,343.27,17.59,0000 0000 0000 0000 000000
2015-07-20 01:23:37,0.01,1.18,0.00,25.10,28.77,31.11,4.61,26.33,1010.59,2031.74,3107.24,2899.99,3179.96,349.70,342.97,17.62,0000 0000 0000 0000 000000
2015-07-20 01:28:38,-0.01,1.18,0.00,25.10,28.77,31.13,4.72,26.38,1010.65,2031.80,3107.11,2899.99,3179.92,350.26,343.48,17.65,0000 0000 0000 0000 000000
2015-07-20 01:33:39,0.02,1.18,0.00,25.11,28.77,31.09,4.67,26.35,1010.66,2031.87,3107.10,2899.99,3179.91,349.71,343.08,17.68,0000 0000 0000 0000 000000
2015-07-20 01:38:41,-0.00,1.18,0.00,25.12,28.77,31.13,4.70,26.35,1010.65,2031.90,3107.06,2899.99,3179.87,349.56,342.95,17.71,0000 0000 0000 0000 000000
2015-07-20 01:43:42,-0.00,1.18,0.00,25.12,28.77,31.13,4.71,26.32,1010.66,2031.86,3107.01,2899.98,3179.68,349.99,343.08,17.74,0000 0000 0000 0000 000000
2015-07-20 01:48:44,0.00,1.18,0.00,25.12,28.77,31.12,4.71,26.33,1010.52,2031.88,3107.03,2899.97,3179.70,350.48,343.56,17.77,0000 0000 0000 0000 000000
2015-07-20 01:53:44,0.02,1.18,0.00,25.12,28.77,31.12,4.74,26.45,1010.40,2031.87,3107.00,2899.93,3179.21,349.84,342.76,17.80,0000 0000 0000 0000 000000
2015-07-20 01:58:46,0.01,1.19,0.00,25.13,28.78,31.12,4.68,26.37,1010.37,2031.93,3107.00,2899.94,3179.22,350.25,343.24,17.83,0000 0000 0000 0000 000000
2015-07-20 02:03:47,0.00,1.19,0.00,25.12,28.78,31.11,4.71,26.27,1010.43,2031.94,3107.00,2899.93,3179.10,350.05,343.19,17.86,0000 0000 0000 0000 000000
2015-07-20 02:08:49,0.01,1.19,0.00,25.15,28.79,31.12,4.60,26.28,1010.33,2031.93,3107.00,2899.72,3179.03,350.07,343.12,17.89,0000 0000 0000 0000 000000
2015-07-20 02:13:50,-0.01,1.19,0.00,25.15,28.79,31.12,4.78,26.36,1010.30,2031.82,3106.99,2899.55,3179.01,350.29,343.34,17.91,0000 0000 0000 0000 000000
2015-07-20 02:18:51,0.01,1.19,0.00,25.15,28.80,31.13,4.72,26.32,1010.28,2031.90,3106.97,2899.60,3179.01,350.49,343.39,17.94,0000 0000 0000 0000 000000
2015-07-20 02:23:52,0.01,1.19,0.00,25.17,28.80,31.12,4.59,26.30,1010.27,2031.84,3106.92,2899.28,3179.00,348.78,341.84,17.97,0000 0000 0000 0000 000000
2015-07-20 02:28:53,0.01,1.19,0.00,25.17,28.80,31.13,4.72,26.45,1010.27,2031.80,3106.69,2899.12,3179.00,350.20,343.20,18.00,0000 0000 0000 0000 000000
2015-07-20 02:33:54,-0.00,1.19,0.00,25.17,28.80,31.13,4.65,26.41,1010.27,2031.89,3106.97,2899.20,3179.00,349.89,342.93,18.03,0000 0000 0000 0000 000000
2015-07-20 02:38:55,-0.02,1.19,0.00,25.17,28.80,31.13,4.67,26.48,1010.27,2031.77,3106.85,2899.11,3179.00,350.12,343.24,18.06,0000 0000 0000 0000 000000
2015-07-20 02:43:57,0.02,1.19,0.00,25.19,28.80,31.13,4.67,26.46,1010.27,2031.75,3106.57,2899.04,3179.00,349.89,342.81,18.09,0000 0000 0000 0000 000000
2015-07-20 02:48:58,0.01,1.19,0.00,25.18,28.80,31.14,4.69,26.39,1010.28,2031.82,3106.53,2899.05,3178.99,350.15,343.13,18.12,0000 0000 0000 0000 000000
2015-07-20 02:53:59,0.01,1.19,0.00,25.19,28.80,31.15,4.80,26.43,1010.28,2031.87,3106.62,2899.07,3178.99,350.54,343.63,18.15,0000 0000 0000 0000 000000
2015-07-20 02:59:00,0.00,1.19,0.00,25.20,28.81,31.15,4.70,26.38,1010.28,2031.88,3106.33,2899.05,3178.99,350.20,343.12,18.18,0000 0000 0000 0000 000000
2015-07-20 03:04:02,0.00,1.19,0.00,25.20,28.82,31.15,4.64,26.31,1010.29,2031.84,3106.19,2899.02,3178.99,350.00,342.98,18.21,0000 0000 0000 0000 000000
2015-07-20 03:09:03,0.01,1.19,0.00,25.20,28.82,31.17,4.70,26.38,1010.29,2031.89,3106.05,2899.00,3178.98,349.94,342.98,18.24,0000 0000 0000 0000 000000
2015-07-20 03:14:04,-0.00,1.19,0.00,25.20,28.82,31.16,4.75,26.32,1010.29,2031.87,3106.02,2899.00,3178.96,350.26,343.49,18.27,0000 0000 0000 0000 000000
2015-07-20 03:19:06,-0.01,1.19,0.00,25.21,28.82,31.17,4.78,26.32,1010.28,2031.88,3106.02,2899.00,3178.94,350.67,343.52,18.30,0000 0000 0000 0000 000000
2015-07-20 03:24:07,-0.01,1.19,0.00,25.22,28.82,31.17,4.79,26.40,1010.27,2031.81,3106.01,2899.00,3178.82,350.16,343.16,18.33,0000 0000 0000 0000 000000
2015-07-20 03:29:08,0.00,1.19,0.00,25.22,28.82,31.16,4.60,26.32,1010.28,2031.70,3105.99,2899.00,3178.36,349.48,342.54,18.35,0000 0000 0000 0000 000000
2015-07-20 03:34:10,0.01,1.19,0.00,25.23,28.83,31.16,4.67,26.48,1010.27,2031.70,3105.98,2898.99,3178.18,350.09,342.98,18.38,0000 0000 0000 0000 000000
2015-07-20 03:39:11,-0.05,1.19,0.00,25.24,28.84,31.17,4.61,26.38,1010.27,2031.45,3105.98,2898.98,3178.05,349.34,342.32,18.41,0000 0000 0000 0000 000000
2015-07-20 03:44:12,0.03,1.19,0.00,25.23,28.85,31.17,4.64,26.31,1010.27,2031.51,3105.93,2898.94,3178.04,349.59,342.39,18.44,0000 0000 0000 0000 000000
2015-07-20 03:49:14,0.04,1.19,0.00,25.25,28.85,31.18,4.72,26.35,1010.27,2031.59,3105.55,2898.78,3178.00,350.36,343.29,18.47,0000 0000 0000 0000 000000
2015-07-20 03:54:15,0.03,1.19,0.00,25.25,28.85,31.18,4.69,26.25,1010.27,2031.79,3105.26,2898.72,3178.00,350.17,342.85,18.50,0000 0000 0000 0000 000000
2015-07-20 03:59:16,0.02,1.19,0.00,25.27,28.85,31.19,4.74,26.28,1010.27,2031.74,3105.05,2898.21,3177.99,350.24,343.23,18.53,0000 0000 0000 0000 000000
2015-07-20 04:04:18,0.03,1.19,0.00,25.27,28.85,31.20,4.61,26.29,1010.27,2031.72,3104.98,2898.01,3177.88,349.52,342.51,18.56,0000 0000 0000 0000 000000
2015-07-20 04:09:19,0.01,1.19,0.00,25.27,28.87,31.19,4.63,26.37,1010.27,2031.54,3104.27,2897.96,3177.11,349.34,342.15,18.59,0000 0000 0000 0000 000000
2015-07-20 04:14:21,-0.02,1.19,0.00,25.28,28.87,31.20,4.61,26.35,1010.27,2031.32,3104.01,2897.63,3177.00,349.61,342.54,18.62,0000 0000 0000 0000 000000
2015-07-20 04:19:22,0.06,1.19,0.00,25.30,28.87,31.20,4.75,26.32,1010.27,2031.38,3103.77,2897.06,3176.73,349.92,342.90,18.65,0000 0000 0000 0000 000000
2015-07-20 04:24:24,-0.00,1.19,0.00,25.30,28.87,31.21,4.69,26.31,1010.25,2031.20,3103.22,2897.00,3176.19,350.27,343.06,18.68,0000 0000 0000 0000 000000
2015-07-20 04:29:25,0.00,1.19,0.00,25.31,28.87,31.22,4.66,26.33,1010.26,2031.11,3103.02,2896.99,3176.02,349.72,342.57,18.71,0000 0000 0000 0000 000000
2015-07-20 04:34:26,-0.00,1.19,0.00,25.32,28.89,31.22,4.58,26.18,1010.25,2031.11,3103.01,2896.99,3176.01,349.55,342.71,18.74,0000 0000 0000 0000 000000
2015-07-20 04:39:27,0.01,1.19,0.00,25.32,28.90,31.21,4.64,26.24,1010.17,2031.10,3103.00,2896.88,3176.00,350.23,343.01,18.77,0000 0000 0000 0000 000000
2015-07-20 04:44:28,0.04,1.19,0.00,25.35,28.90,31.22,4.62,26.20,1009.98,2031.11,3102.76,2896.23,3175.95,349.47,342.11,18.79,0000 0000 0000 0000 000000
2015-07-20 04:49:30,0.04,1.19,0.00,25.35,28.90,31.24,4.65,26.27,1009.87,2031.05,3102.07,2896.01,3175.30,349.73,342.43,18.82,0000 0000 0000 0000 000000
2015-07-20 04:54:31,-0.00,1.19,0.00,25.35,28.91,31.24,4.58,26.13,1009.87,2031.02,3102.00,2896.00,3175.05,349.89,342.62,18.85,0000 0000 0000 0000 000000
2015-07-20 04:59:32,0.01,1.19,0.00,25.37,28.92,31.24,4.68,26.28,1009.85,2031.07,3102.00,2896.00,3175.06,350.17,342.92,18.88,0000 0000 0000 0000 000000
2015-07-20 05:04:33,0.00,1.19,0.00,25.37,28.92,31.26,4.72,26.32,1009.82,2031.05,3102.00,2896.00,3175.05,350.36,343.03,18.91,0000 0000 0000 0000 000000
2015-07-20 05:09:35,-0.00,1.19,0.00,25.38,28.92,31.26,4.69,26.29,1009.82,2031.03,3102.00,2896.00,3175.00,349.86,342.57,18.94,0000 0000 0000 0000 000000
2015-07-20 05:14:36,0.00,1.19,0.00,25.40,28.94,31.26,4.72,26.21,1009.81,2031.03,3101.92,2895.96,3175.00,349.81,342.47,18.97,0000 0000 0000 0000 000000
2015-07-20 05:19:37,0.02,1.20,0.00,25.40,28.95,31.27,4.67,26.27,1009.79,2031.00,3101.60,2895.85,3175.00,350.27,342.71,19.00,0000 0000 0000 0000 000000
2015-07-20 05:24:38,0.01,1.20,0.00,25.40,28.95,31.28,4.70,26.33,1009.80,2031.00,3101.29,2895.65,3174.97,350.13,342.74,19.03,0000 0000 0000 0000 000000
2015-07-20 05:29:40,0.04,1.20,0.00,25.41,28.96,31.29,4.56,26.16,1009.79,2031.00,3101.02,2895.16,3174.65,349.30,341.88,19.06,0000 0000 0000 0000 000000
2015-07-20 05:34:41,0.01,1.20,0.00,25.42,28.97,31.29,4.85,26.27,1009.80,2031.00,3101.00,2895.05,3174.50,350.24,342.64,19.09,0000 0000 0000 0000 000000
2015-07-20 05:39:43,0.00,1.20,0.00,25.42,28.97,31.30,4.71,26.21,1009.80,2031.00,3101.00,2895.02,3174.24,349.80,342.36,19.12,0000 0000 0000 0000 000000
2015-07-20 05:44:44,0.00,1.20,0.00,25.44,28.99,31.31,4.72,26.28,1009.79,2031.00,3101.00,2895.01,3174.09,350.20,342.70,19.15,0000 0000 0000 0000 000000
2015-07-20 05:49:45,0.00,1.20,0.00,25.44,29.00,31.32,4.61,26.14,1009.79,2031.00,3100.97,2895.00,3174.01,350.15,342.32,19.17,0000 0000 0000 0000 000000
2015-07-20 05:54:46,0.00,1.20,0.00,25.45,29.00,31.33,4.78,26.27,1009.78,2031.00,3100.79,2894.99,3174.00,350.22,342.48,19.20,0000 0000 0000 0000 000000
2015-07-20 05:59:48,0.01,1.20,0.00,25.45,29.00,31.34,4.67,26.31,1009.79,2031.00,3100.43,2894.97,3173.99,350.39,342.95,19.23,0000 0000 0000 0000 000000
2015-07-20 06:04:49,0.04,1.20,0.00,25.47,29.02,31.34,4.72,26.29,1009.80,2030.99,3100.02,2894.55,3173.86,350.10,342.65,19.26,0000 0000 0000 0000 000000
2015-07-20 06:09:50,0.03,1.20,0.00,25.49,29.02,31.35,4.75,26.25,1009.81,2030.99,3100.00,2894.11,3173.37,350.35,342.82,19.29,0000 0000 0000 0000 000000
2015-07-20 06:14:51,0.01,1.20,0.00,25.48,29.02,31.36,4.76,26.18,1009.83,2030.99,3099.93,2894.01,3173.03,350.01,342.55,19.32,0000 0000 0000 0000 000000
2015-07-20 06:19:53,0.01,1.20,0.00,25.50,29.04,31.36,4.68,26.13,1009.89,2030.99,3099.51,2894.00,3173.00,349.52,341.94,19.35,0000 0000 0000 0000 000000
2015-07-20 06:24:54,0.00,1.20,0.00,25.50,29.05,31.37,4.66,26.24,1009.85,2030.99,3099.22,2894.00,3173.00,349.83,342.28,19.38,0000 0000 0000 0000 000000
2015-07-20 06:29:56,0.00,1.20,0.00,25.51,29.05,31.37,4.70,26.28,1009.81,2030.98,3099.01,2893.98,3172.98,349.82,342.15,19.41,0000 0000 0000 0000 000000
2015-07-20 06:34:57,0.01,1.20,0.00,25.52,29.06,31.39,4.70,26.27,1009.79,2030.99,3099.00,2893.96,3172.91,349.87,342.17,19.44,0000 0000 0000 0000 000000
2015-07-20 06:39:59,0.06,1.20,0.00,25.52,29.07,31.39,4.60,26.19,1009.79,2030.98,3098.92,2893.38,3172.37,349.87,342.37,19.47,0000 0000 0000 0000 000000
2015-07-20 06:45:00,0.01,1.20,0.00,25.53,29.07,31.40,4.71,26.32,1009.79,2030.99,3098.78,2893.10,3172.12,349.85,342.41,19.50,0000 0000 0000 0000 000000
2015-07-20 06:50:01,0.02,1.21,0.00,25.55,29.09,31.41,4.72,26.26,1009.79,2030.98,3098.12,2893.01,3172.00,350.44,342.89,19.53,0000 0000 0000 0000 000000
2015-07-20 06:55:02,0.00,1.21,0.00,25.55,29.10,31.42,4.65,26.19,1009.78,2030.97,3098.00,2893.00,3171.99,349.69,342.14,19.56,0000 0000 0000 0000 000000
2015-07-20 07:00:04,0.04,1.21,0.00,25.57,29.10,31.42,4.68,26.19,1009.78,2030.93,3097.65,2892.84,3171.55,349.89,342.28,19.59,0000 0000 0000 0000 000000
2015-07-20 07:05:05,0.04,1.21,0.00,25.58,29.10,31.42,4.63,26.28,1009.78,2030.89,3097.03,2892.25,3171.04,349.55,341.94,19.61,0000 0000 0000 0000 000000
2015-07-20 07:10:06,0.01,1.21,0.00,25.59,29.12,31.44,4.66,26.18,1009.78,2030.84,3096.99,2892.01,3171.00,349.93,342.49,19.64,0000 0000 0000 0000 000000
2015-07-20 07:15:07,0.00,1.21,0.00,25.60,29.12,31.44,4.75,26.27,1009.78,2030.82,3096.77,2892.00,3170.94,349.81,342.14,19.67,0000 0000 0000 0000 000000
2015-07-20 07:20:08,0.03,1.21,0.00,25.60,29.13,31.46,4.69,26.35,1009.78,2030.74,3096.06,2891.97,3170.31,349.61,341.96,19.70,0000 0000 0000 0000 000000
2015-07-20 07:25:09,0.05,1.21,0.00,25.62,29.15,31.46,4.77,26.32,1009.78,2030.81,3095.96,2891.58,3170.01,350.57,342.97,19.73,0000 0000 0000 0000 000000
2015-07-20 07:30:11,0.00,1.21,0.00,25.62,29.15,31.47,4.74,26.28,1009.78,2030.61,3095.24,2891.03,3169.98,350.01,342.34,19.76,0000 0000 0000 0000 000000
2015-07-20 07:35:12,-0.01,1.21,0.00,25.63,29.15,31.48,4.71,26.27,1009.79,2030.47,3095.01,2891.00,3169.60,350.13,342.46,19.79,0000 0000 0000 0000 000000
2015-07-20 07:40:13,0.00,1.21,0.00,25.64,29.17,31.49,4.74,26.24,1009.79,2030.37,3094.96,2890.94,3169.06,350.49,342.69,19.82,0000 0000 0000 0000 000000
2015-07-20 07:45:15,0.06,1.21,0.00,25.65,29.17,31.50,4.69,26.13,1009.79,2030.31,3094.34,2890.48,3168.99,350.63,342.91,19.85,0000 0000 0000 0000 000000
2015-07-20 07:50:16,0.01,1.21,0.00,25.65,29.17,31.51,4.67,26.21,1009.78,2030.30,3094.01,2890.07,3168.95,349.73,342.34,19.88,0000 0000 0000 0000 000000
2015-07-20 07:55:17,0.01,1.21,0.00,25.66,29.20,31.51,4.67,26.14,1009.80,2030.16,3093.96,2890.00,3168.38,350.20,342.78,19.91,0000 0000 0000 0000 000000
2015-07-20 08:00:19,0.02,1.21,0.00,25.65,29.20,31.52,4.77,26.21,1009.80,2030.09,3093.38,2889.98,3168.02,349.99,342.33,19.94,0000 0000 0000 0000 000000
2015-07-20 08:05:20,0.03,1.21,0.00,25.67,29.20,31.54,4.64,26.18,1009.81,2030.06,3093.00,2889.54,3167.99,349.29,341.91,19.97,0000 0000 0000 0000 000000
2015-07-20 08:10:21,0.03,1.21,0.00,25.67,29.22,31.54,4.75,26.19,1009.81,2030.02,3092.85,2889.06,3167.61,350.38,342.66,20.00,0000 0000 0000 0000 000000
2015-07-20 08:15:22,0.03,1.22,0.00,25.68,29.22,31.54,4.74,26.17,1009.82,2030.03,3092.31,2889.00,3167.10,350.20,342.44,20.02,0000 0000 0000 0000 000000
2015-07-20 08:20:24,0.00,1.22,0.00,25.70,29.22,31.56,4.77,26.13,1009.81,2030.00,3092.01,2888.99,3167.00,350.16,342.31,20.05,0000 0000 0000 0000 000000
2015-07-20 08:25:25,0.05,1.22,0.00,25.70,29.24,31.57,4.78,26.24,1009.80,2030.00,3091.76,2888.71,3166.71,350.48,342.83,20.08,0000 0000 0000 0000 000000
2015-07-20 08:30:26,0.05,1.22,0.00,25.72,29.25,31.57,4.68,26.23,1009.79,2030.00,3091.15,2888.12,3166.09,349.75,341.86,20.11,0000 0000 0000 0000 000000
2015-07-20 08:35:28,0.00,1.22,0.00,25.72,29.25,31.58,4.62,26.16,1009.80,2030.00,3091.00,2888.01,3166.01,349.91,342.03,20.14,0000 0000 0000 0000 000000
2015-07-20 08:40:29,0.00,1.22,0.00,25.72,29.27,31.59,4.66,26.20,1009.79,2030.00,3090.97,2888.00,3165.99,349.73,342.03,20.17,0000 0000 0000 0000 000000
2015-07-20 08:45:30,0.01,1.22,0.00,25.72,29.27,31.59,4.63,26.25,1009.80,2030.00,3090.59,2887.97,3165.84,349.93,342.10,20.20,0000 0000 0000 0000 000000
2015-07-20 08:50:32,0.05,1.22,0.00,25.72,29.28,31.60,4.70,26.23,1009.79,2029.99,3090.06,2887.78,3165.35,350.19,342.54,20.23,0000 0000 0000 0000 000000
2015-07-20 08:55:33,0.04,1.22,0.00,25.73,29.30,31.61,4.63,26.17,1009.80,2029.99,3089.98,2887.14,3165.02,350.18,342.37,20.26,0000 0000 0000 0000 000000
2015-07-20 09:00:34,0.03,1.22,0.00,25.74,29.30,31.62,4.67,26.16,1009.80,2029.99,3089.36,2887.00,3164.96,349.86,342.17,20.29,0000 0000 0000 0000 000000
2015-07-20 09:05:36,0.01,1.22,0.00,25.75,29.31,31.63,4.69,26.23,1009.84,2029.99,3089.00,2886.99,3164.66,350.30,342.38,20.32,0000 0000 0000 0000 000000
2015-07-20 09:10:37,0.02,1.22,0.00,25.75,29.32,31.64,4.82,26.32,1009.87,2029.99,3088.99,2886.87,3164.12,350.35,342.67,20.35,0000 0000 0000 0000 000000
2015-07-20 09:15:39,0.05,1.23,0.00,25.76,29.32,31.65,4.66,26.28,1009.82,2029.99,3088.70,2886.26,3164.00,349.43,341.71,20.38,0000 0000 0000 0000 000000
2015-07-20 09:20:40,0.02,1.23,0.00,25.76,29.33,31.66,4.62,26.35,1009.87,2029.97,3088.04,2886.00,3163.85,349.61,341.80,20.41,0000 0000 0000 0000 000000
2015-07-20 09:25:41,0.03,1.23,0.00,25.77,29.35,31.66,4.71,26.27,1009.86,2029.96,3087.88,2885.97,3163.19,350.15,342.51,20.43,0000 0000 0000 0000 000000
2015-07-20 09:30:43,0.03,1.23,0.00,25.77,29.35,31.66,4.63,26.25,1009.88,2029.97,3087.37,2885.87,3163.00,349.74,341.93,20.46,0000 0000 0000 0000 000000
2015-07-20 09:35:44,0.02,1.23,0.00,25.78,29.36,31.68,4.73,26.17,1009.85,2029.89,3087.01,2885.27,3162.99,350.21,342.33,20.49,0000 0000 0000 0000 000000
2015-07-20 09:40:45,0.01,1.23,0.00,25.78,29.37,31.68,4.59,26.17,1010.00,2029.82,3086.99,2885.01,3162.75,349.73,342.16,20.52,0000 0000 0000 0000 000000
2015-07-20 09:45:46,0.01,1.23,0.00,25.78,29.37,31.69,4.69,26.41,1010.08,2029.78,3086.82,2885.00,3162.13,349.58,341.95,20.55,0000 0000 0000 0000 000000
2015-07-20 09:50:48,-0.02,1.23,0.00,25.80,29.37,31.69,4.61,26.38,1010.14,2029.53,3086.16,2884.98,3162.00,349.81,341.97,20.58,0000 0000 0000 0000 000000
2015-07-20 09:55:49,0.04,1.23,0.00,25.80,29.39,31.71,4.66,26.40,1010.21,2029.48,3085.99,2884.56,3161.97,349.82,342.08,20.61,0000 0000 0000 0000 000000
2015-07-20 10:00:50,0.01,1.23,0.00,25.80,29.40,31.71,4.66,26.37,1010.21,2029.51,3085.85,2884.11,3161.72,349.86,342.15,20.64,0000 0000 0000 0000 000000
2015-07-20 10:05:52,0.03,1.23,0.00,25.80,29.40,31.72,4.68,26.34,1010.23,2029.33,3085.09,2884.00,3161.09,349.89,342.12,20.67,0000 0000 0000 0000 000000
2015-07-20 10:10:53,-0.06,1.23,0.00,25.80,29.40,31.72,4.66,26.27,1010.23,2029.18,3085.00,2883.99,3160.99,349.64,341.91,20.70,0000 0000 0000 0000 000000
2015-07-20 10:15:54,0.01,1.23,0.00,25.80,29.42,31.73,4.73,26.10,1010.26,2029.08,3084.84,2883.79,3160.93,349.87,342.15,20.73,0000 0000 0000 0000 000000
2015-07-20 10:20:55,0.08,1.23,0.00,25.80,29.42,31.74,4.67,26.18,1010.26,2029.04,3084.12,2883.16,3160.20,349.90,342.21,20.76,0000 0000 0000 0000 000000
2015-07-20 10:25:56,0.00,1.23,0.00,25.80,29.42,31.74,4.74,26.27,1010.27,2029.03,3083.99,2883.02,3160.01,350.11,342.30,20.79,0000 0000 0000 0000 000000
2015-07-20 10:30:57,0.01,1.23,0.00,25.81,29.42,31.75,4.70,26.36,1010.23,2029.02,3083.86,2883.00,3159.99,350.45,342.73,20.82,0000 0000 0000 0000 000000
2015-07-20 10:35:58,0.01,1.23,0.00,25.82,29.44,31.74,4.62,26.31,1010.16,2029.01,3083.53,2882.98,3159.85,349.79,342.13,20.85,0000 0000 0000 0000 000000
2015-07-20 10:41:00,0.01,1.23,0.00,25.82,29.45,31.74,4.69,26.44,1010.10,2029.00,3083.56,2882.97,3159.49,350.03,342.22,20.87,0000 0000 0000 0000 000000
2015-07-20 10:46:01,0.02,1.23,0.00,25.82,29.45,31.75,4.73,26.43,1009.87,2029.00,3083.25,2882.93,3159.30,350.39,342.72,20.90,0000 0000 0000 0000 000000
2015-07-20 10:51:02,0.02,1.24,0.00,25.82,29.45,31.77,4.71,26.50,1009.83,2029.00,3083.03,2882.56,3159.02,350.44,342.45,20.93,0000 0000 0000 0000 000000
2015-07-20 10:56:04,0.02,1.24,0.00,25.82,29.45,31.77,4.70,26.46,1009.83,2029.00,3083.00,2882.19,3159.00,349.87,342.04,20.96,0000 0000 0000 0000 000000
2015-07-20 11:01:05,-0.00,1.24,0.00,25.83,29.46,31.77,4.65,26.43,1009.84,2028.99,3083.00,2882.08,3159.00,350.32,342.13,20.99,0000 0000 0000 0000 000000
2015-07-20 11:06:06,-0.00,1.24,0.00,25.83,29.47,31.77,4.68,26.49,1009.92,2028.97,3083.00,2882.03,3159.00,350.05,341.95,21.02,0000 0000 0000 0000 000000
2015-07-20 11:11:08,0.00,1.24,0.00,25.82,29.47,31.78,4.63,26.42,1009.97,2028.98,3082.99,2882.02,3158.98,349.76,341.91,21.05,0000 0000 0000 0000 000000
2015-07-20 11:16:09,0.01,1.24,0.00,25.82,29.47,31.79,4.72,26.43,1009.84,2028.98,3082.91,2882.01,3158.98,350.33,342.53,21.08,0000 0000 0000 0000 000000
2015-07-20 11:21:11,0.03,1.24,0.00,25.82,29.47,31.79,4.68,26.38,1009.84,2028.94,3082.29,2882.00,3158.63,349.23,341.30,21.11,0000 0000 0000 0000 000000
2015-07-20 11:26:12,0.02,1.24,0.00,25.82,29.47,31.81,4.61,26.38,1009.80,2028.97,3082.00,2881.97,3158.23,350.18,342.19,21.14,0000 0000 0000 0000 000000
2015-07-20 11:31:13,0.00,1.24,0.00,25.83,29.48,31.80,4.70,26.32,1009.79,2028.95,3082.00,2881.93,3158.03,350.12,342.23,21.17,0000 0000 0000 0000 000000
2015-07-20 11:36:15,0.00,1.24,0.00,25.84,29.49,31.80,4.71,26.29,1009.79,2028.96,3082.00,2881.91,3158.01,349.91,342.15,21.20,0000 0000 0000 0000 000000
2015-07-20 11:41:16,0.00,1.24,0.00,25.85,29.50,31.83,4.69,26.32,1009.78,2028.95,3081.98,2881.77,3158.00,350.07,342.20,21.23,0000 0000 0000 0000 000000
2015-07-20 11:46:17,0.01,1.24,0.00,25.85,29.50,31.81,4.70,26.35,1009.78,2028.96,3081.97,2881.63,3158.00,349.87,342.03,21.26,0000 0000 0000 0000 000000
2015-07-20 11:51:18,0.00,1.24,0.00,25.85,29.50,31.81,4.75,26.24,1009.78,2028.92,3081.88,2881.28,3157.99,350.51,342.56,21.28,0000 0000 0000 0000 000000
2015-07-20 11:56:19,0.01,1.24,0.00,25.85,29.50,31.83,4.72,26.35,1009.78,2028.94,3081.84,2881.18,3157.99,350.28,342.28,21.31,0000 0000 0000 0000 000000
2015-07-20 12:01:20,0.00,1.24,0.00,25.85,29.50,31.81,4.70,26.43,1009.78,2028.97,3081.87,2881.43,3157.99,350.46,342.47,21.34,0000 0000 0000 0000 000000
2015-07-20 12:06:22,0.01,1.24,0.00,25.85,29.50,31.82,4.72,26.47,1009.78,2028.90,3081.64,2881.19,3157.98,349.96,341.92,21.37,0000 0000 0000 0000 000000
2015-07-20 12:11:23,-0.00,1.24,0.00,25.85,29.51,31.83,4.70,26.46,1009.78,2028.85,3081.49,2881.06,3157.96,349.87,341.83,21.40,0000 0000 0000 0000 000000
2015-07-20 12:16:24,-0.02,1.24,0.00,25.85,29.52,31.84,4.71,26.39,1009.78,2028.64,3081.36,2881.04,3157.95,350.15,341.99,21.43,0000 0000 0000 0000 000000
2015-07-20 12:21:25,-0.02,1.24,0.00,25.85,29.52,31.84,4.65,26.37,1009.78,2028.49,3081.14,2881.02,3157.81,349.93,341.95,21.46,0000 0000 0000 0000 000000
2015-07-20 12:26:26,-0.01,1.24,0.00,25.85,29.52,31.85,4.64,26.43,1009.77,2028.32,3081.03,2881.01,3157.49,349.99,342.23,21.49,0000 0000 0000 0000 000000
2015-07-20 12:31:28,0.05,1.24,0.00,25.85,29.52,31.84,4.73,26.31,1009.78,2028.49,3081.03,2881.01,3157.56,350.31,342.26,21.52,0000 0000 0000 0000 000000
2015-07-20 12:36:29,-0.04,1.24,0.00,25.85,29.52,31.83,4.71,26.34,1009.78,2028.36,3081.01,2881.00,3157.31,350.18,342.39,21.55,0000 0000 0000 0000 000000
2015-07-20 12:41:30,-0.01,1.24,0.00,25.85,29.52,31.85,4.69,26.33,1009.78,2028.22,3081.00,2881.00,3157.13,349.87,341.93,21.58,0000 0000 0000 0000 000000
2015-07-20 12:46:32,0.01,1.24,0.00,25.85,29.52,31.84,4.69,26.33,1009.78,2028.24,3081.00,2881.00,3157.08,350.10,342.16,21.61,0000 0000 0000 0000 000000
2015-07-20 12:51:33,-0.00,1.24,0.00,25.85,29.52,31.85,4.65,26.27,1009.76,2028.28,3081.00,2881.00,3157.09,349.84,341.97,21.64,0000 0000 0000 0000 000000
2015-07-20 12:56:34,-0.02,1.24,0.00,25.85,29.53,31.86,4.68,26.27,1009.75,2028.20,3081.00,2881.00,3157.03,350.51,342.52,21.67,0000 0000 0000 0000 000000
2015-07-20 13:01:35,0.00,1.24,0.00,25.85,29.54,31.85,4.69,26.26,1009.71,2028.17,3080.99,2881.00,3157.03,350.04,342.08,21.70,0000 0000 0000 0000 000000